Location: Cessey
(47.4088°N, 4.5541°E)
Time: 01:31:29
(UTC+00:00)

Daily predictions for brighter satellites

Satellite Brightness Start Highest point End
(mag) Time Altitude Azimuth Time Altitude Azimuth Time Altitude Azimuth
USA 234 4.4 00:38:11 10° ENE 00:43:28 38° NNE 00:43:28 38° NNE
Cosmos 1980 Rocket 4.3 01:05:32 20° ENE 01:05:32 20° ENE 01:07:50 10° NE
Cosmos 2263 Rocket 4.2 00:59:19 10° N 01:03:49 24° NE 01:03:49 24° NE
Lacrosse 5 4.2 01:22:28 20° NE 01:22:28 20° NE 01:23:57 10° NE
Resurs 1-4 Rocket 3.9 01:24:36 10° NNE 01:26:56 27° NNE 01:26:56 27° NNE
SL-16 R/B 4.1 01:35:43 26° NNW 01:35:43 26° NNW 01:38:15 10° NNW
CZ-2D R/B 3.8 01:31:10 10° NNE 01:33:36 28° NNE 01:33:36 28° NNE
USA 267 4.4 01:44:25 10° ENE 01:49:37 31° ESE 01:49:37 31° ESE
ARIANE 5 R/B 4.3 01:46:23 10° NE 01:50:06 26° E 01:50:06 26° E
ATLAS 5 CENTAUR R/B 4.1 01:57:35 17° N 01:57:35 17° N 01:59:58 10° NNE
Cosmos 1934 Rocket 4.4 01:53:03 10° N 01:58:47 55° ENE 01:58:47 55° ENE
Gbstr 26 Del rocket 4.4 02:03:39 79° SE 02:03:39 79° SE 02:10:47 10° ESE
ATLAS 2AS CENTAUR R/B 4.1 01:56:46 10° NW 02:03:52 39° NNE 02:10:28 10° E
Cosmos 2278 4.3 02:10:19 54° NNE 02:10:19 54° NNE 02:14:39 10° NNE
Cosmos 2369 4.5 02:20:39 44° NNW 02:20:39 44° NNW 02:24:56 10° NNE
ADEOS II 2.8 02:14:31 10° NNE 02:18:20 49° NNE 02:18:20 49° NNE
SL-4 R/B 4.2 02:21:54 25° E 02:21:54 25° E 02:24:22 10° ENE
SJ 16-02 4.1 02:15:55 10° NNW 02:16:15 12° NNW 02:16:15 12° NNW
IDEFIX/ARIANE 42P 3.6 02:16:49 10° NNE 02:21:47 39° E 02:22:24 38° ESE
USA 234 3.8 02:20:07 10° E 02:26:28 56° NNE 02:30:48 21° NW
Nadezhda 3 Rocket 4.3 02:27:57 55° NNW 02:27:57 55° NNW 02:32:59 10° N
Cosmos 2228 Rocket 4.2 02:33:14 42° NE 02:33:14 42° NE 02:36:26 10° NNE
Cosmos 1238 Rocket 3.8 02:26:54 10° N 02:33:16 85° NNW 02:33:16 85° NNW
Cosmos 1605 Rocket 4.3 02:27:15 10° N 02:33:40 67° E 02:37:19 27° SSE
USA 305 4.4 02:36:27 33° NNE 02:36:27 33° NNE 02:39:18 10° ENE
CZ-4B R/B 4.3 02:30:55 10° N 02:34:35 45° NNW 02:34:35 45° NNW
Cosmos 1535 Rocket 4.4 02:29:43 10° N 02:36:09 85° W 02:36:27 81° SSW
Cosmos 2360 Rocket 4.4 02:33:12 11° SE 02:37:05 20° E 02:41:08 10° NE
H-2A R/B 4.0 02:34:18 10° SE 02:38:09 30° ENE 02:42:04 10° N
USA 306 4.3 02:40:42 34° NNE 02:40:42 34° NNE 02:43:43 10° ENE
Cosmos 1697 Rocket 3.7 02:40:57 33° NNW 02:40:57 33° NNW 02:45:13 10° NNE
ATLAS CENTAUR R/B 4.4 02:30:19 10° WNW 02:43:44 46° N 02:48:57 10° ENE
Meteor 1-4 Rocket 4.5 02:46:55 28° NE 02:46:55 28° NE 02:49:06 10° NNE
Cosmos 1980 Rocket 2.5 02:47:20 52° NW 02:47:20 52° NW 02:52:23 10° NNE
Cosmos 2263 Rocket 3.5 02:42:44 10° NNW 02:45:20 28° NW 02:45:20 28° NW
ASTEX 1 3.4 02:46:40 10° N 02:51:25 80° N 02:51:25 80° N
Cosmos 1844 Rocket 4.3 02:47:13 10° NNW 02:52:21 34° NE 02:57:28 10° ESE
Cosmos 2322 Rocket 2.8 02:54:21 36° SSE 02:56:16 51° ESE 03:01:47 10° NE
Cosmos 1898 Rocket 3.5 02:51:33 10° NNW 02:56:51 81° ENE 03:02:09 10° SSE
Meteor 2-9 4.5 02:52:28 10° NNW 02:57:41 72° WNW 02:57:41 72° WNW
Cosmos 1666 3.6 02:55:30 10° N 02:59:07 47° ENE 02:59:07 47° ENE
Spot 4 Rocket 4.1 02:54:44 10° NNE 02:59:55 74° ESE 03:01:00 54° S
Meteor 1-11 Rocket 4.1 02:55:30 10° N 03:01:14 64° ENE 03:06:49 10° SSE
Lacrosse 5 2.9 03:01:39 33° NNW 03:02:19 34° NNW 03:06:57 10° NE
Cosmos 921 Rocket 3.7 03:05:07 44° N 03:05:07 44° N 03:08:12 10° NNE
IRS-1C 4.2 03:00:02 10° N 03:05:14 58° WNW 03:05:14 58° WNW
Cosmos 1812 3.4 03:08:14 47° N 03:08:14 47° N 03:11:05 10° N
SL-16 R/B 2.2 03:06:39 48° S 03:08:15 76° ESE 03:13:57 10° NNE
Resurs 1-4 Rocket 4.0 03:05:44 10° NNW 03:08:01 16° NW 03:08:01 16° NW
USA 307 4.0 03:08:53 35° NNW 03:09:12 35° N 03:13:08 10° ENE
Meteor 1-27 Rocket 4.4 03:05:04 14° SSE 03:10:02 55° E 03:15:46 10° NNE
ERBS 3.8 03:12:22 32° NNE 03:12:22 32° NNE 03:14:32 10° NE
IRIDIUM 104 4.3 03:06:38 10° N 03:11:54 82° E 03:15:23 22° S
USA 308 4.0 03:12:08 34° NNW 03:12:36 35° N 03:16:33 10° ENE
Cosmos 1727 Rocket 4.1 03:09:26 19° S 03:14:09 75° E 03:20:27 10° NNE
Cosmos 1339 Rocket 4.4 03:12:47 47° SW 03:14:32 69° W 03:20:43 10° N
CZ-2D R/B 4.0 03:12:42 10° NNW 03:14:55 15° NW 03:14:55 15° NW
Cosmos 1937 Rocket 3.4 03:11:12 10° NNW 03:16:22 85° ENE 03:21:31 10° SSE
FALCON 9 DEB 3.7 03:20:10 56° ENE 03:20:10 56° ENE 03:22:59 10° ENE
CZ-4C R/B 3.2 03:20:02 68° NNE 03:20:02 68° NNE 03:23:16 10° N
IRIDIUM 114 4.2 03:15:48 10° N 03:21:03 84° W 03:24:29 22° S
Cosmos 841 Rocket 4.3 03:18:31 19° S 03:22:04 50° ESE 03:27:10 10° NNE
Cosmos 1536 3.1 03:20:12 10° N 03:24:17 67° E 03:28:19 10° SSE
Cosmos 1763 Rocket 3.4 03:25:16 44° SSW 03:27:00 81° WNW 03:32:20 10° NNE
CZ-2D R/B 3.6 03:23:14 10° N 03:27:24 55° WNW 03:27:24 55° WNW
USA 32 4.0 03:24:11 10° N 03:29:28 84° E 03:34:44 10° S
ARIANE 5 R/B 2.8 03:25:07 10° N 03:29:56 44° WNW 03:30:25 43° W
IRIDIUM 103 4.2 03:24:58 10° N 03:30:11 71° W 03:33:37 22° S
NOSS 3-4 (A) 3.8 03:24:41 10° NW 03:31:41 83° SW 03:39:27 10° SSE
NOSS 3-4 (C) 3.8 03:24:48 10° NW 03:31:48 84° SW 03:39:34 10° SE
USA 267 3.2 03:27:04 10° NE 03:33:39 88° NW 03:36:58 32° WSW
Cosmos 1707 Rocket 3.4 03:32:27 36° S 03:34:10 89° W 03:38:34 10° N
ADEOS Rocket 3.4 03:31:35 10° SSE 03:38:05 68° ENE 03:43:57 10° N
Meteor 1-5 Rocket 4.4 03:35:42 10° NNW 03:40:40 41° W 03:42:00 35° SW
CZ-4B R/B 3.2 03:37:59 10° SE 03:40:53 32° ENE 03:43:52 10° N
NOSS 3-3 (A) 4.4 03:38:58 33° W 03:41:24 48° NW 03:48:01 10° NE
NOSS 3-3 (C) 4.4 03:39:06 33° W 03:41:30 48° NW 03:48:07 10° NE
ERS-2 2.4 03:38:27 10° SSE 03:42:05 68° ENE 03:45:45 10° N
Cosmos 540 Rocket 3.6 03:38:54 19° SSW 03:42:39 75° ESE 03:47:50 10° NNE
ATLAS 5 CENTAUR R/B 4.3 03:40:49 10° NNW 03:43:17 13° N 03:45:54 10° NE
MSX 3.8 03:39:12 10° N 03:44:55 64° WNW 03:48:33 23° SW
Cosmos 44 Rocket 3.3 03:44:48 29° SSW 03:47:14 79° ESE 03:52:07 10° NE
Cosmos 1733 Rocket 2.9 03:43:08 10° N 03:47:30 88° E 03:51:49 10° S
IRIDIUM 106 4.5 03:43:25 10° NNW 03:48:27 49° W 03:51:57 19° SSW
Cosmos 1743 3.5 03:46:25 10° N 03:50:09 51° ENE 03:53:52 10° SSE
PAYLOAD A 3.7 03:47:48 10° NNE 03:52:32 90° WSW 03:57:13 10° SSW
ATLAS 2AS CENTAUR R/B 2.7 03:47:59 10° NW 03:55:28 73° SW 04:02:19 10° SSE
Landsat 5 3.8 03:51:19 10° S 03:55:40 48° W 03:59:59 10° NNW
Cosmos 2173 Rocket 4.0 03:49:20 10° N 03:55:43 82° W 04:02:05 10° S
Cosmos 2333 Rocket 3.8 03:51:16 10° S 03:56:25 35° ESE 04:01:35 10° NE
BREEZE M DEB (TANK) 4.3 03:44:18 10° WNW 03:57:26 40° SW 04:01:47 10° SSE
CZ-2C R/B 3.3 03:54:36 10° N 03:58:10 38° WNW 03:58:54 35° W
ADEOS II 3.8 03:55:46 10° NNW 03:58:46 16° NW 03:59:15 15° WNW
SL-4 R/B 2.3 03:57:30 32° W 03:59:37 76° NNW 04:04:26 10° ENE
IDEFIX/ARIANE 42P 3.4 03:56:37 10° N 04:01:16 33° WNW 04:03:12 25° WSW
PSLV R/B 3.4 03:57:37 10° N 04:01:50 77° WNW 04:05:43 12° SSW
Cosmos 1570 Rocket 4.0 03:58:30 15° SSW 04:02:55 79° WNW 04:08:19 10° NNE
BREEZE-M DEB (TANK) 3.1 03:59:36 22° WSW 04:03:45 55° SSE 04:06:43 10° E
USA 276 2.0 04:03:18 40° W 04:04:16 69° SSW 04:07:27 10° ESE
Cosmos 1862 Rocket 3.4 04:04:40 10° SSW 04:09:03 79° W 04:13:24 10° N
USA 234 3.2 04:02:58 10° SE 04:09:26 64° SW 04:15:56 10° WNW
BREEZE-M DEB (TANK) 3.3 04:08:00 27° W 04:09:44 75° N 04:18:15 10° ENE
CZ-4C R/B 3.3 04:06:07 10° NW 04:13:09 67° NE 04:21:21 10° SE
H-2A R/B 2.8 04:10:02 10° SSW 04:14:02 33° W 04:18:07 10° NNW
SAR-Lupe-4 3.8 04:11:29 10° SSE 04:15:03 74° ENE 04:18:40 10° N
ALOS 3.0 04:11:05 10° NNE 04:15:41 55° E 04:20:15 10° S
USA 305 4.2 04:12:37 13° WNW 04:15:59 34° N 04:19:53 10° ENE
Cosmos 1689 Rocket 3.9 04:14:19 10° SE 04:17:03 34° ENE 04:19:48 10° N
PKM 4.1 04:14:43 17° WNW 04:17:13 45° SW 04:20:56 10° SSE
FENGYUN 3A 4.2 04:12:40 10° NNE 04:18:02 61° E 04:23:23 10° S
USA 306 4.2 04:16:52 12° WNW 04:20:26 35° N 04:24:22 10° ENE
Cosmos 2360 Rocket 2.2 04:15:02 11° SW 04:20:30 70° WNW 04:26:11 10° NNE
Meteor 1-4 Rocket 4.3 04:21:08 16° WNW 04:21:08 16° WNW 04:23:16 10° NNW
COSMOS 2455 4.2 04:15:26 10° NNW 04:21:08 40° NE 04:26:46 10° ESE
CZ-2C R/B 2.6 04:18:23 10° N 04:23:27 56° WNW 04:28:29 10° SSW
Cosmos 1975 3.6 04:19:40 10° N 04:23:39 57° ENE 04:27:34 10° SSE
Cosmos 372 Rocket 4.1 04:22:27 10° NNW 04:27:24 49° WSW 04:32:17 10° S
Cosmos 2016 Rocket 3.9 04:21:24 10° NNW 04:27:30 70° W 04:33:32 10° S
Cosmos 1980 Rocket 4.2 04:29:23 10° WNW 04:32:11 14° NW 04:34:59 10° N
Cosmos 1484 Rocket 2.9 04:28:57 10° NNE 04:32:59 86° ESE 04:37:00 10° SSW
SAR-Lupe-1 4.0 04:30:34 10° S 04:34:07 71° WSW 04:37:43 10° NNW
Cosmos 2061 Rocket 4.1 04:27:58 10° NNW 04:34:20 64° W 04:40:39 10° S
Cosmos 1844 Rocket 2.9 04:31:01 10° NW 04:36:24 46° WSW 04:41:46 10° S
Cosmos 2233 Rocket 4.2 04:31:03 10° N 04:37:13 78° E 04:43:22 10° SSE
Cosmos 1515 3.6 04:33:41 10° S 04:37:29 89° NW 04:41:17 10° N
Cosmos 2322 Rocket 3.1 04:36:12 13° WSW 04:40:34 32° NW 04:45:39 10° NNE
Cosmos 2278 Rocket 3.3 04:35:55 10° NNW 04:41:23 47° NE 04:46:50 10° SE
Cosmos 1844 3.9 04:39:53 10° NW 04:45:12 47° WSW 04:50:30 10° S
Okean 1 3.4 04:41:32 10° SSW 04:45:31 56° WNW 04:49:31 10° N
Meteor 1-31 Rocket 2.7 04:42:02 10° NNE 04:45:53 84° WNW 04:49:45 10° SSW
Lacrosse 5 3.4 04:42:03 10° NW 04:46:26 28° N 04:50:48 10° ENE
COSMO-SKYMED 1 2.7 04:43:29 10° SSE 04:47:50 80° ENE 04:52:11 10° NNW
ERBS 4.4 04:45:51 10° NW 04:48:13 18° N 04:50:35 10° NE
USA 307 4.0 04:45:57 10° WNW 04:49:58 39° NNE 04:53:59 10° E
Cosmos 1725 Rocket 4.0 04:44:07 10° NNW 04:50:09 57° W 04:56:09 10° S
Meteor 2-9 Rocket 4.1 04:45:29 10° NNW 04:50:58 75° W 04:56:18 10° S
Cosmos 2298 Rocket 4.3 04:47:10 10° NNW 04:52:13 45° WSW 04:57:14 10° S
Cosmos 1437 Rocket 3.2 04:48:46 10° SW 04:52:21 38° WNW 04:56:00 10° N
deb Chang Zheng 4 3.7 04:48:41 10° N 04:52:52 51° WNW 04:56:59 10° SW
SL-16 R/B 3.5 04:48:33 10° W 04:52:59 23° NW 04:57:30 10° N
SJ-12 4.2 04:49:04 10° NNE 04:53:13 73° ESE 04:57:21 10° S
USA 308 4.0 04:49:20 10° WNW 04:53:23 40° NNE 04:57:24 10° E
FALCON 9 DEB 4.2 04:53:38 10° WNW 04:56:49 34° N 05:00:00 10° ENE
Cosmos 1782 Rocket 3.6 04:56:55 10° NNW 05:01:23 73° W 05:05:49 10° S
Cosmos 1908 Rocket 4.0 04:58:21 10° NNW 05:02:33 40° W 05:06:44 10° SSW
Cosmos 1703 Rocket 3.6 05:01:07 10° SSW 05:05:23 56° WNW 05:09:42 10° N
Okean 1-7 3.0 05:01:47 10° SSW 05:05:58 60° WNW 05:10:12 10° N
